Location: Augirein
(42.9320°N, 0.9181°E)
Time: 19:09:33
(UTC+00:00)

Cosmos 1825 - Pass Details

Date: 20 June 2021
Orbit: 500 x 507 km, 82.5° (Epoch: 23 July)

Event Time Altitude Azimuth Distance (km) Brightness Sun altitude
Exits shadow 00:12:45 24° 84° (E) 1,082 3.9 -23.5°
Drops below altitude 10° 00:15:36 10° 35° (NE) 1,726 5.6 -23.5°
Sets 00:18:00 0° 21° (NNE) 2,615 7.0 -23.5°
